Вернуться в каталог

STARLINK-32959

АктивенСвязьVLEO
NORAD 63569·PAYLOAD·🇺🇸 United States

Запущен Apr 14, 2025 с Cape Canaveral Space Force Station

Loading…

Ближайшие Пролёты (ближайшие 24 часа)

TLE

СвежийSource: CelesTrak SupGP

Эпоха: Sep 14, 2026, 22:48 UTC

1 63569C 25076A   26257.95048611 -.00022174  00000+0 -80350-3 0  2578
2 63569  43.0015 336.8323 0001555 273.1277 322.3198 15.27574442    17

Отслеживайте STARLINK-32959 в реальном времени с AllMySat

Download on the App Store